Change the Weather History Date:

Tuesday, December 15, 2009

  Actual Average Record
Temperature  
Mean Temperature 49 °F -  
Max Temperature 57 °F 46 °F 68 °F (1984)
Min Temperature 41 °F 26 °F 6 °F (2010)
Degree Days  
Heating Degree Days 16    
Moisture  
Dew Point 42 °F    
Average Humidity 68    
Maximum Humidity 77    
Minimum Humidity 54    
Precipitation  
Precipitation 0.00 in - - ()
Sea Level Pressure  
Sea Level Pressure 30.03 in    
Wind  
Wind Speed 11 mph (WNW)    
Max Wind Speed 24 mph    
Max Gust Speed 41 mph    
Visibility 10 miles    
Events      
Averages and records for this station are not official NWS values.
T = Trace of Precipitation, MM = Missing Value Source: NWS Daily Summary

Daily Weather History Graph

Daily Weather History Graph

Search for Another Location

Airport or City:

Trip Planner

Search our weather history database for the weather conditions in past years. The results will help you decide how hot, cold, wet, or windy it might be!

Date:

Astronomy

Dec. 15, 2009 Rise Set
Actual Time 7:30 AM EST 5:11 PM EST
Civil Twilight 7:01 AM EST 5:40 PM EST
Nautical Twilight 6:29 AM EST 6:12 PM EST
Astronomical Twilight 5:57 AM EST 6:44 PM EST
Moon 6:53 AM EST (12/15) 4:26 PM EST (12/15)
Length of Visible Light 10h 38m
Length of Day
9h 41m
Waning Crescent, 1% of the Moon is Illuminated
Dec 15
Waning Crescent
Dec 16
New
Dec 24
First Quarter
Dec 31
Full
Jan 7
Last Quarter

Hourly Weather History & Observations

Time (EST) Temp. Windchill Dew Point Humidity Pressure Visibility Wind Dir Wind Speed Gust Speed Precip Events Conditions
12:00 AM 50.0 °F - 39.2 °F 66% 29.99 in 10.0 mi Calm Calm - N/A   Scattered Clouds
12:20 AM 53.6 °F - 37.4 °F 54% 30.00 in 10.0 mi West 5.8 mph - N/A   Clear
12:40 AM 53.6 °F - 37.4 °F 54% 30.00 in 10.0 mi WSW 3.5 mph - N/A   Scattered Clouds
1:00 AM 55.4 °F - 39.2 °F 54% 30.00 in 10.0 mi South 3.5 mph - N/A   Scattered Clouds
1:20 AM 55.4 °F - 39.2 °F 54% 29.99 in 10.0 mi Calm Calm - N/A   Mostly Cloudy
1:40 AM 55.4 °F - 39.2 °F 54% 30.00 in 10.0 mi Calm Calm - N/A   Mostly Cloudy
2:00 AM 55.4 °F - 42.8 °F 63% 30.00 in 10.0 mi West 11.5 mph 19.6 mph N/A   Overcast
2:20 AM 57.2 °F - 44.6 °F 63% 30.00 in 10.0 mi WSW 4.6 mph 18.4 mph N/A   Overcast
2:42 AM 57.2 °F - 46.4 °F 67% 30.00 in 10.0 mi West 15.0 mph 18.4 mph N/A   Mostly Cloudy
3:00 AM 57.2 °F - 46.4 °F 67% 30.00 in 10.0 mi WSW 5.8 mph 20.7 mph N/A   Overcast
3:20 AM 57.2 °F - 46.4 °F 67% 29.99 in 10.0 mi West 6.9 mph - N/A   Mostly Cloudy
3:40 AM 57.2 °F - 48.2 °F 72% 29.98 in 10.0 mi West 16.1 mph 23.0 mph N/A   Mostly Cloudy
4:00 AM 57.2 °F - 48.2 °F 72% 29.98 in 10.0 mi West 20.7 mph 25.3 mph N/A   Mostly Cloudy
4:23 AM 55.4 °F - 48.2 °F 77% 29.99 in 10.0 mi West 13.8 mph 21.9 mph N/A   Mostly Cloudy
4:40 AM 55.4 °F - 48.2 °F 77% 29.99 in 10.0 mi West 12.7 mph 23.0 mph N/A   Overcast
5:00 AM 55.4 °F - 48.2 °F 77% 29.99 in 10.0 mi West 16.1 mph 23.0 mph N/A   Overcast
5:20 AM 55.4 °F - 48.2 °F 77% 29.99 in 10.0 mi West 12.7 mph 21.9 mph N/A   Overcast
5:43 AM 55.4 °F - 48.2 °F 77% 30.00 in 10.0 mi WNW 10.4 mph - N/A   Overcast
6:00 AM 55.4 °F - 48.2 °F 77% 30.00 in 10.0 mi WNW 9.2 mph 17.3 mph N/A   Mostly Cloudy
6:20 AM 55.4 °F - 48.2 °F 77% 30.00 in 10.0 mi WNW 8.1 mph 19.6 mph N/A   Mostly Cloudy
6:40 AM 55.4 °F - 48.2 °F 77% 30.00 in 10.0 mi WNW 16.1 mph 20.7 mph N/A   Mostly Cloudy
7:00 AM 55.4 °F - 48.2 °F 77% 30.00 in 10.0 mi WNW 13.8 mph 20.7 mph N/A   Mostly Cloudy
7:20 AM 55.4 °F - 48.2 °F 77% 30.00 in 10.0 mi WNW 13.8 mph 27.6 mph N/A   Mostly Cloudy
7:40 AM 55.4 °F - 46.4 °F 72% 30.00 in 10.0 mi WNW 18.4 mph 26.5 mph N/A   Mostly Cloudy
8:00 AM 55.4 °F - 46.4 °F 72% 30.00 in 10.0 mi WNW 17.3 mph 26.5 mph N/A   Mostly Cloudy
8:20 AM 55.4 °F - 46.4 °F 72% 30.00 in 10.0 mi WNW 21.9 mph 31.1 mph N/A   Mostly Cloudy
8:40 AM 55.4 °F - 46.4 °F 72% 30.02 in 10.0 mi WNW 18.4 mph 27.6 mph N/A   Scattered Clouds
9:00 AM 55.4 °F - 46.4 °F 72% 30.02 in 10.0 mi WNW 20.7 mph 31.1 mph N/A   Mostly Cloudy
9:20 AM 55.4 °F - 46.4 °F 72% 30.02 in 10.0 mi WNW 20.7 mph 26.5 mph N/A   Scattered Clouds
9:40 AM 55.4 °F - 44.6 °F 67% 30.03 in 10.0 mi WNW 20.7 mph 33.4 mph N/A   Mostly Cloudy
10:00 AM 55.4 °F - 44.6 °F 67% 30.03 in 10.0 mi WNW 18.4 mph 28.8 mph N/A   Mostly Cloudy
10:20 AM 55.4 °F - 44.6 °F 67% 30.03 in 10.0 mi WNW 18.4 mph 32.2 mph N/A   Mostly Cloudy
10:40 AM 55.4 °F - 44.6 °F 67% 30.04 in 10.0 mi WNW 19.6 mph 27.6 mph N/A   Mostly Cloudy
11:00 AM 55.4 °F - 44.6 °F 67% 30.04 in 10.0 mi WNW 18.4 mph 31.1 mph N/A   Overcast
11:20 AM 53.6 °F - 42.8 °F 67% 30.04 in 10.0 mi WNW 17.3 mph 27.6 mph N/A   Overcast
11:40 AM 53.6 °F - 42.8 °F 67% 30.03 in 10.0 mi WNW 21.9 mph 32.2 mph N/A   Overcast
12:00 PM 53.6 °F - 42.8 °F 67% 30.03 in 10.0 mi WNW 13.8 mph 26.5 mph N/A   Overcast
12:20 PM 51.8 °F - 42.8 °F 71% 30.02 in 10.0 mi WNW 20.7 mph 29.9 mph N/A   Overcast
12:40 PM 51.8 °F - 42.8 °F 71% 30.02 in 10.0 mi WNW 15.0 mph 41.4 mph N/A   Overcast
1:00 PM 51.8 °F - 41.0 °F 67% 30.00 in 10.0 mi WNW 24.2 mph 36.8 mph N/A   Overcast
1:20 PM 51.8 °F - 41.0 °F 67% 30.02 in 10.0 mi WNW 18.4 mph 34.5 mph N/A   Mostly Cloudy
1:40 PM 51.8 °F - 39.2 °F 62% 30.02 in 10.0 mi WNW 17.3 mph 32.2 mph N/A   Mostly Cloudy
2:00 PM 51.8 °F - 39.2 °F 62% 30.02 in 10.0 mi West 17.3 mph 23.0 mph N/A   Overcast
2:20 PM 50.0 °F - 37.4 °F 62% 30.02 in 10.0 mi WNW 18.4 mph 32.2 mph N/A   Mostly Cloudy
2:40 PM 50.0 °F - 37.4 °F 62% 30.03 in 10.0 mi WNW 17.3 mph 26.5 mph N/A   Scattered Clouds
3:00 PM 50.0 °F - 39.2 °F 66% 30.04 in 10.0 mi WNW 12.7 mph 19.6 mph N/A   Scattered Clouds
3:20 PM 50.0 °F - 37.4 °F 62% 30.04 in 10.0 mi NW 11.5 mph 23.0 mph N/A   Scattered Clouds
3:40 PM 50.0 °F - 37.4 °F 62% 30.05 in 10.0 mi WNW 17.3 mph 24.2 mph N/A   Scattered Clouds
4:00 PM 48.2 °F - 35.6 °F 62% 30.06 in 10.0 mi NW 11.5 mph 25.3 mph N/A   Mostly Cloudy
4:20 PM 46.4 °F 39.0 °F 35.6 °F 66% 30.06 in 10.0 mi WNW 19.6 mph 34.5 mph N/A   Mostly Cloudy
4:40 PM 46.4 °F 41.1 °F 35.6 °F 66% 30.08 in 10.0 mi WNW 11.5 mph 19.6 mph N/A   Scattered Clouds
5:20 PM 44.6 °F 38.1 °F 33.8 °F 66% 30.09 in 10.0 mi NW 13.8 mph 28.8 mph N/A   Scattered Clouds
5:40 PM 42.8 °F 35.4 °F 33.8 °F 70% 30.10 in 10.0 mi WNW 15.0 mph 24.2 mph N/A   Scattered Clouds
6:00 PM 42.8 °F 39.3 °F 32.0 °F 66% 30.10 in 10.0 mi NW 5.8 mph 29.9 mph N/A   Overcast
6:20 PM 42.8 °F 38.0 °F 32.0 °F 66% 30.12 in 10.0 mi NW 8.1 mph 24.2 mph N/A   Mostly Cloudy
6:40 PM 41.0 °F 36.4 °F 30.2 °F 65% 30.13 in 10.0 mi WNW 6.9 mph 26.5 mph N/A   Mostly Cloudy
7:00 PM 41.0 °F 34.3 °F 30.2 °F 65% 30.13 in 10.0 mi NW 11.5 mph 23.0 mph N/A   Mostly Cloudy
7:20 PM 41.0 °F 32.5 °F 30.2 °F 65% 30.14 in 10.0 mi NW 17.3 mph 28.8 mph N/A   Mostly Cloudy
7:40 PM 39.2 °F 31.2 °F 30.2 °F 70% 30.15 in 10.0 mi WNW 13.8 mph 31.1 mph N/A   Overcast
8:00 PM 39.2 °F 30.5 °F 26.6 °F 61% 30.15 in 10.0 mi NW 16.1 mph 31.1 mph N/A   Scattered Clouds
8:22 PM 39.2 °F 30.8 °F 21.2 °F 49% 30.16 in 10.0 mi NW 15.0 mph 26.5 mph N/A   Clear
8:40 PM 39.2 °F 31.2 °F 19.4 °F 45% 30.18 in 10.0 mi NW 13.8 mph 25.3 mph N/A   Clear
9:00 PM 39.2 °F 35.0 °F 19.4 °F 45% 30.19 in 10.0 mi NW 5.8 mph 25.3 mph N/A   Clear
9:20 PM 37.4 °F 29.8 °F 19.4 °F 48% 30.19 in 10.0 mi NNW 11.5 mph 25.3 mph N/A   Clear
9:40 PM 37.4 °F 29.8 °F 19.4 °F 48% 30.20 in 10.0 mi NW 11.5 mph 26.5 mph N/A   Clear
10:00 PM 37.4 °F 28.9 °F 15.8 °F 41% 30.20 in 10.0 mi NW 13.8 mph 33.4 mph N/A   Clear
10:20 PM 35.6 °F 26.2 °F 17.6 °F 48% 30.20 in 10.0 mi NNW 15.0 mph 24.2 mph N/A   Clear
10:40 PM 35.6 °F 25.2 °F 17.6 °F 48% 30.20 in 10.0 mi NW 18.4 mph 31.1 mph N/A   Clear
11:00 PM 35.6 °F 25.9 °F 15.8 °F 44% 30.20 in 10.0 mi NW 16.1 mph 27.6 mph N/A   Clear
11:20 PM 35.6 °F 26.2 °F 14.0 °F 41% 30.18 in 10.0 mi NW 15.0 mph 29.9 mph N/A   Clear
11:40 PM 35.6 °F 25.5 °F 12.2 °F 38% 30.18 in 10.0 mi NW 17.3 mph 32.2 mph N/A   Clear